[[{"header":{"parameterUnit":"m.s-1","parameterCategory":2,"la1":30.2992,"la2":30.254,"lo1":-89.0895,"lo2":-89.0443,"dy":0.0025,"dx":0.0025,"nx":19,"ny":19,"refTime":"2026-04-12T03:00:00:Z","depth":"0","parameterNumber":2,"parameterNumberName":"U-component_of_CURRENTS"},"data":[0,0,0,-0.1606,-0.1607,-0.164,-0.1641,-0.1676,-0.1676,0,0,0,0,0,0,0,0,0,0,0,-0.1585,-0.1584,-0.1606,-0.1607,-0.164,-0.1641,-0.1676,-0.1676,0,0,0,0,0,0,0,0,0,0,0,-0.1585,-0.1584,-0.1584,-0.1607,-0.164,-0.1641,-0.1676,-0.1656,0,0,0,0,0,0,0,0,0,0,-0.1625,-0.1592,-0.1584,-0.1584,-0.1607,-0.164,-0.1641,-0.1655,-0.1657,-0.1654,0,-0.1641,0,-0.1657,-0.1677,-0.1677,0,0,0,-0.162,-0.1591,-0.1607,-0.1584,-0.1607,-0.164,-0.1629,-0.1656,-0.1658,-0.1657,-0.1642,-0.1644,-0.1658,-0.1677,-0.1677,-0.1697,-0.1697,0,0,-0.1618,-0.1589,-0.1605,-0.1608,-0.1592,-0.1628,-0.163,-0.1658,-0.1645,-0.1642,-0.1645,-0.1658,-0.1677,-0.1677,-0.1697,-0.1697,0,0,0,-0.1604,-0.1587,-0.1604,-0.1606,-0.1611,-0.1628,-0.1631,-0.1644,-0.1651,-0.1646,-0.1659,-0.1677,-0.1677,-0.1697,-0.1697,-0.1695,0,0,0,-0.1603,-0.1578,-0.1602,-0.1585,-0.161,-0.1627,-0.1616,-0.1649,-0.1653,-0.1659,-0.1677,-0.1678,-0.1697,-0.1697,-0.1694,-0.1607,0,0,0,-0.1587,-0.1577,-0.1575,-0.1583,-0.1594,-0.1627,-0.1636,-0.165,-0.166,-0.1677,-0.1678,-0.1697,-0.1697,-0.1694,-0.1609,-0.1575,0,0,0,-0.1566,-0.152,-0.1574,-0.1536,-0.1593,-0.1608,-0.1636,-0.1633,-0.1639,-0.1677,-0.1697,-0.1697,-0.1694,-0.1611,-0.1576,-0.1516,-0.1503,0,0,-0.1494,-0.151,-0.1493,-0.1542,-0.1552,-0.1606,-0.1626,-0.1636,-0.165,-0.1689,-0.169,-0.1695,-0.1609,-0.1575,-0.1532,-0.1518,0,0,0,-0.1463,-0.1462,-0.1468,-0.1494,-0.1524,-0.1567,-0.1615,-0.1644,-0.1678,-0.1655,-0.1701,-0.1645,-0.1624,-0.1593,-0.1582,-0.1585,-0.1698,-0.1698,-0.1698,-0.1345,-0.1401,-0.1392,-0.1469,-0.1485,-0.155,-0.1561,-0.1612,-0.1669,-0.1688,-0.1653,-0.1622,-0.1593,-0.1583,-0.1589,-0.1708,-0.1708,-0.1708,-0.1708,-0.128,-0.1284,-0.1364,-0.1376,-0.1443,-0.1472,-0.1542,-0.1579,-0.16,-0.1664,-0.1648,-0.1601,-0.157,-0.1581,-0.1708,-0.1708,-0.1708,-0.1708,-0.1708,-0.1225,-0.1231,-0.1261,-0.1301,-0.1332,-0.1407,-0.1413,-0.1469,-0.1529,-0.1506,-0.1489,-0.1488,-0.1484,-0.1536,-0.1536,-0.1535,-0.1535,-0.1534,-0.1534,-0.1137,-0.1175,-0.1175,-0.1219,-0.1237,-0.1269,-0.1333,-0.135,-0.1374,-0.1407,-0.1408,-0.1464,-0.1568,-0.1559,-0.1526,-0.1528,-0.1529,-0.1529,-0.153,-0.1053,-0.1071,-0.1081,-0.1094,-0.1142,-0.1138,-0.1214,-0.1229,-0.1244,-0.1228,-0.1297,-0.1365,-0.1337,-0.1347,-0.1332,-0.1241,-0.1241,-0.1241,-0.1241,-0.0977,-0.0993,-0.1015,-0.1037,-0.1055,-0.1086,-0.1049,-0.1078,-0.1132,-0.1135,-0.1182,-0.1244,-0.1255,-0.1227,-0.1239,-0.1225,-0.1109,-0.1109,-0.1109,-0.091,-0.0945,-0.0948,-0.1004,-0.1028,-0.1021,-0.0936,-0.0902,-0.1007,-0.1107,-0.1195,-0.1201,-0.1302,-0.132,-0.1289,-0.1306,-0.1287,0,0]},{"header":{"parameterUnit":"m.s-1","parameterCategory":2,"la1":30.2992,"la2":30.254,"lo1":-89.0895,"lo2":-89.0443,"dy":0.0025,"dx":0.0025,"nx":19,"ny":19,"refTime":"2026-04-12T03:00:00:Z","depth":"0","parameterNumber":3,"parameterNumberName":"V-component_of_CURRENTS"},"data":[0,0,0,-0.0056,-0.0055,0.0046,0.0046,0.0165,0.0166,0,0,0,0,0,0,0,0,0,0,0,-0.0096,-0.0096,-0.0057,-0.0054,0.0046,0.0046,0.0164,0.0166,0,0,0,0,0,0,0,0,0,0,0,-0.0096,-0.0096,-0.0095,-0.0054,0.0046,0.0046,0.0164,0.0094,0,0,0,0,0,0,0,0,0,0,-0.0002,-0.0053,-0.0096,-0.0095,-0.0054,0.0046,0.0046,0.009,0.0098,0.0113,0,0.012,0,0.0143,0.0172,0.0173,0,0,0,-0.0044,-0.0059,-0.0021,-0.0095,-0.0053,0.0045,0.0004,0.0095,0.0103,0.0123,0.0121,0.0126,0.0145,0.0173,0.0173,0.0189,0.0188,0,0,-0.0049,-0.0084,-0.0027,-0.0016,-0.0038,0.0,0.0007,0.01,0.0097,0.0122,0.0129,0.0147,0.0174,0.0174,0.0189,0.0188,0,0,0,-0.0072,-0.0089,-0.0052,-0.0021,-0.0003,0.0003,0.001,0.0093,0.0108,0.0131,0.0148,0.0174,0.0175,0.019,0.0189,0.0139,0,0,0,-0.0075,-0.0102,-0.0055,-0.0076,-0.0006,0.0044,0.0,0.0101,0.0113,0.0148,0.0174,0.0176,0.019,0.0189,0.0142,0.0135,0,0,0,-0.0099,-0.0105,-0.0094,-0.0078,-0.0037,0.0044,0.0064,0.0105,0.0123,0.0173,0.0177,0.0191,0.0189,0.0144,0.0138,0.0181,0,0,0,-0.0135,-0.0141,-0.0096,-0.0106,-0.0038,-0.0007,0.0064,0.0097,0.0131,0.0175,0.019,0.0189,0.0145,0.0141,0.0182,0.0247,0.0247,0,0,-0.0164,-0.0146,-0.0153,-0.0109,-0.0108,-0.002,-0.0012,0.0069,0.0115,0.0163,0.0164,0.0141,0.0139,0.0181,0.0166,0.0169,0,0,0,-0.0177,-0.0184,-0.0176,-0.0164,-0.012,-0.0076,0.0001,0.0042,0.0093,0.0129,0.0126,0.0127,0.0156,0.0196,0.0197,0.0326,0.0182,0.0183,0.0183,-0.0255,-0.0233,-0.0247,-0.0215,-0.0192,-0.0115,-0.0068,-0.0001,0.0044,0.0051,0.0074,0.0057,0.0094,0.0098,0.0227,0.0053,0.0053,0.0053,0.0053,-0.0313,-0.0319,-0.0295,-0.0299,-0.0246,-0.0225,-0.0122,-0.0074,0.0007,0.002,0.0051,0.0125,0.0097,0.0234,0.0049,0.005,0.0051,0.0051,0.0051,-0.0365,-0.0362,-0.0363,-0.0358,-0.0334,-0.0267,-0.0196,-0.0121,-0.0035,-0.0009,0.0089,0.0091,0.0229,0.0019,0.0019,0.0019,0.0019,0.0019,0.002,-0.0409,-0.0407,-0.0418,-0.0408,-0.0395,-0.0344,-0.0225,-0.0145,-0.0013,0.0054,0.0056,0.0235,0.0048,0.0069,0.0021,0.0021,0.0021,0.0021,0.0021,-0.0456,-0.0449,-0.0467,-0.0463,-0.0418,-0.0332,-0.0259,-0.0064,0.0028,0.011,0.0307,0.0111,0.0153,0.0152,0.0176,0.0159,0.0159,0.0159,0.0159,-0.048,-0.0481,-0.047,-0.0449,-0.0407,-0.0313,-0.0137,0.003,0.0276,0.0413,0.0435,0.0452,0.0441,0.0501,0.0492,0.0524,0.0595,0.0596,0.0597,-0.0499,-0.0498,-0.0466,-0.0433,-0.038,-0.0259,-0.0053,0.0182,0.0508,0.0625,0.06,0.0582,0.0616,0.0588,0.0685,0.0663,0.0716,0,0]}],[{"header":{"parameterUnit":"m.s-1","parameterCategory":2,"la1":30.2992,"la2":30.254,"lo1":-89.0895,"lo2":-89.0443,"dy":0.0025,"dx":0.0025,"nx":19,"ny":19,"refTime":"2026-04-12T03:00:00:Z","depth":"2","parameterNumber":2,"parameterNumberName":"U-component_of_CURRENTS"},"data":[0,0,0,-0.1424,-0.1425,-0.1467,-0.1467,-0.1487,-0.1487,0,0,0,0,0,0,0,0,0,0,0,-0.1402,-0.1402,-0.1424,-0.1425,-0.1467,-0.1467,-0.1487,-0.1487,0,0,0,0,0,0,0,0,0,0,0,-0.1402,-0.1402,-0.1402,-0.1425,-0.1467,-0.1467,-0.1487,-0.1465,0,0,0,0,0,0,0,0,0,0,-0.1429,-0.1402,-0.1402,-0.1402,-0.1425,-0.1467,-0.1467,-0.1464,-0.1466,-0.1456,0,-0.1453,0,-0.147,-0.1487,-0.1487,0,0,0,-0.1431,-0.1401,-0.1421,-0.1402,-0.1426,-0.1466,-0.145,-0.1466,-0.1468,-0.1458,-0.1454,-0.1455,-0.147,-0.1487,-0.1487,-0.1479,-0.1479,0,0,-0.1429,-0.1403,-0.1419,-0.1422,-0.1423,-0.1448,-0.1451,-0.1468,-0.1458,-0.1454,-0.1456,-0.1471,-0.1487,-0.1487,-0.1479,-0.1479,0,0,0,-0.1418,-0.1401,-0.1422,-0.142,-0.143,-0.1449,-0.1452,-0.1457,-0.1466,-0.1456,-0.1471,-0.1487,-0.1487,-0.1479,-0.1479,-0.1504,0,0,0,-0.1417,-0.1395,-0.1421,-0.1405,-0.143,-0.1447,-0.1441,-0.1465,-0.1468,-0.1471,-0.1487,-0.1487,-0.1479,-0.1479,-0.1504,-0.143,0,0,0,-0.1403,-0.1394,-0.1397,-0.1404,-0.1421,-0.1447,-0.1457,-0.1466,-0.1476,-0.1487,-0.1487,-0.1479,-0.1479,-0.1503,-0.1432,-0.1399,0,0,0,-0.1379,-0.1347,-0.1396,-0.1371,-0.1421,-0.1435,-0.1458,-0.1455,-0.1458,-0.1487,-0.1479,-0.1479,-0.1503,-0.1433,-0.14,-0.1336,-0.1324,0,0,-0.1323,-0.1339,-0.1328,-0.1373,-0.1386,-0.143,-0.145,-0.1458,-0.1456,-0.1473,-0.1473,-0.1504,-0.1432,-0.1399,-0.1326,-0.1314,0,0,0,-0.1301,-0.1304,-0.131,-0.1337,-0.1364,-0.1403,-0.1442,-0.1465,-0.1486,-0.1458,-0.1493,-0.1444,-0.1424,-0.1389,-0.138,-0.1478,-0.1478,-0.1478,-0.1478,-0.1204,-0.1253,-0.125,-0.1319,-0.1334,-0.1391,-0.14,-0.1437,-0.148,-0.1493,-0.1462,-0.1434,-0.14,-0.1392,-0.1501,-0.1501,-0.1501,-0.1501,-0.1501,-0.1154,-0.1159,-0.123,-0.1246,-0.1305,-0.1331,-0.1389,-0.1421,-0.143,-0.1479,-0.1462,-0.141,-0.1382,-0.1503,-0.1502,-0.1502,-0.1502,-0.1502,-0.1502,-0.1108,-0.1114,-0.1144,-0.1184,-0.1215,-0.1281,-0.1285,-0.1333,-0.1379,-0.136,-0.1323,-0.1322,-0.1408,-0.1384,-0.1384,-0.1383,-0.1383,-0.1383,-0.1382,-0.103,-0.1067,-0.1069,-0.1115,-0.1131,-0.1162,-0.1218,-0.1228,-0.1243,-0.1267,-0.1267,-0.1392,-0.1396,-0.1398,-0.1376,-0.1377,-0.1378,-0.1378,-0.1379,-0.0957,-0.0973,-0.0982,-0.0994,-0.1037,-0.1027,-0.1105,-0.111,-0.112,-0.1099,-0.1217,-0.1223,-0.1184,-0.1192,-0.1187,-0.1111,-0.1111,-0.1111,-0.1111,-0.0887,-0.0903,-0.0912,-0.0925,-0.0939,-0.0967,-0.0931,-0.0949,-0.0994,-0.0992,-0.0998,-0.1045,-0.1059,-0.1016,-0.1027,-0.1021,-0.0901,-0.09,-0.09,-0.0825,-0.0851,-0.084,-0.0883,-0.0901,-0.0889,-0.0814,-0.0754,-0.0777,-0.0893,-0.0978,-0.1093,-0.1182,-0.1196,-0.1146,-0.1159,-0.1155,0,0]},{"header":{"parameterUnit":"m.s-1","parameterCategory":2,"la1":30.2992,"la2":30.254,"lo1":-89.0895,"lo2":-89.0443,"dy":0.0025,"dx":0.0025,"nx":19,"ny":19,"refTime":"2026-04-12T03:00:00:Z","depth":"2","parameterNumber":3,"parameterNumberName":"V-component_of_CURRENTS"},"data":[0,0,0,-0.0122,-0.012,-0.0013,-0.0013,0.0107,0.0108,0,0,0,0,0,0,0,0,0,0,0,-0.0164,-0.0163,-0.0122,-0.012,-0.0014,-0.0013,0.0107,0.0108,0,0,0,0,0,0,0,0,0,0,0,-0.0164,-0.0163,-0.0163,-0.012,-0.0014,-0.0013,0.0106,0.0032,0,0,0,0,0,0,0,0,0,0,-0.0069,-0.0118,-0.0163,-0.0163,-0.0119,-0.0014,-0.0013,0.0029,0.0037,0.0051,0,0.0061,0,0.0086,0.0115,0.0115,0,0,0,-0.0112,-0.0125,-0.0086,-0.0163,-0.0118,-0.0014,-0.0059,0.0033,0.0042,0.0061,0.0063,0.0068,0.0087,0.0115,0.0116,0.0162,0.0162,0,0,-0.0118,-0.0151,-0.0092,-0.0081,-0.0099,-0.0063,-0.0056,0.0039,0.0038,0.0063,0.0071,0.0089,0.0116,0.0117,0.0162,0.0162,0,0,0,-0.014,-0.0155,-0.0118,-0.0086,-0.0066,-0.006,-0.0052,0.0034,0.0049,0.0072,0.0091,0.0116,0.0118,0.0163,0.0162,0.0105,0,0,0,-0.0143,-0.0168,-0.0121,-0.0141,-0.0068,-0.0015,-0.006,0.0042,0.0054,0.009,0.0117,0.0119,0.0163,0.0162,0.0107,0.0092,0,0,0,-0.0167,-0.0171,-0.0159,-0.0142,-0.0098,-0.0016,0.0005,0.0046,0.0065,0.0115,0.0119,0.0163,0.0162,0.0109,0.0095,0.0124,0,0,0,-0.0203,-0.0201,-0.016,-0.0159,-0.0099,-0.0054,0.0005,0.0045,0.0082,0.0117,0.0163,0.0162,0.011,0.0097,0.0125,0.0169,0.0168,0,0,-0.0221,-0.0205,-0.0204,-0.0165,-0.0148,-0.0067,-0.0046,0.0029,0.0078,0.0133,0.0134,0.0107,0.0095,0.0125,0.0133,0.0133,0,0,0,-0.0224,-0.0227,-0.0214,-0.0196,-0.0145,-0.0101,-0.0025,0.0016,0.0072,0.0097,0.011,0.0105,0.0126,0.0154,0.0154,0.0159,0.0159,0.0159,0.0159,-0.0292,-0.0266,-0.027,-0.0233,-0.0203,-0.0122,-0.0077,-0.0008,0.0037,0.0049,0.0061,0.0046,0.0074,0.0075,0.0059,0.0059,0.0058,0.0058,0.0058,-0.0339,-0.0343,-0.0314,-0.0308,-0.0255,-0.0226,-0.0122,-0.0077,-0.0001,0.002,0.0043,0.0094,0.0071,0.0054,0.0054,0.0055,0.0056,0.0056,0.0056,-0.0391,-0.0387,-0.0383,-0.0372,-0.0345,-0.0274,-0.0213,-0.0135,-0.005,-0.003,0.0049,0.0051,0.0036,-0.0008,-0.0008,-0.0008,-0.0008,-0.0008,-0.0008,-0.0441,-0.0433,-0.0446,-0.0428,-0.0417,-0.0371,-0.0255,-0.0184,-0.0063,0.0005,0.0006,0.0026,0.0028,0.0034,-0.0007,-0.0007,-0.0008,-0.0008,-0.0008,-0.0489,-0.0484,-0.0506,-0.0506,-0.0471,-0.0426,-0.0326,-0.0153,-0.0061,0.001,0.0046,0.0044,0.0081,0.0083,0.0092,0.0067,0.0067,0.0067,0.0067,-0.052,-0.052,-0.0536,-0.0535,-0.0512,-0.0445,-0.033,-0.0161,0.0008,0.0079,0.0078,0.008,0.0077,0.0114,0.0115,0.0125,0.0109,0.0109,0.0109,-0.0544,-0.0552,-0.0555,-0.0548,-0.0523,-0.0456,-0.035,-0.0182,0.0032,0.0107,0.0052,0.0077,0.0078,0.0074,0.0132,0.0132,0.0149,0,0]}],[{"header":{"parameterUnit":"m.s-1","parameterCategory":2,"la1":30.2992,"la2":30.254,"lo1":-89.0895,"lo2":-89.0443,"dy":0.0025,"dx":0.0025,"nx":19,"ny":19,"refTime":"2026-04-12T03:00:00:Z","depth":"4","parameterNumber":2,"parameterNumberName":"U-component_of_CURRENTS"},"data":[0,0,0,-0.0996,-0.0999,-0.1097,-0.1097,-0.1031,-0.103,0,0,0,0,0,0,0,0,0,0,0,-0.0963,-0.0964,-0.0996,-0.0999,-0.1097,-0.1097,-0.1032,-0.103,0,0,0,0,0,0,0,0,0,0,0,-0.0962,-0.0963,-0.0965,-0.0999,-0.1097,-0.1097,-0.1032,-0.1003,0,0,0,0,0,0,0,0,0,0,-0.0931,-0.0938,-0.0963,-0.0965,-0.1,-0.1097,-0.1097,-0.1004,-0.1005,-0.0936,0,-0.0967,0,-0.0997,-0.1023,-0.1022,0,0,0,-0.0989,-0.0938,-0.0958,-0.0965,-0.1001,-0.1096,-0.105,-0.1006,-0.1007,-0.0936,-0.0966,-0.0965,-0.0995,-0.1022,-0.1021,-0.0931,-0.0931,0,0,-0.0984,-0.0977,-0.0958,-0.096,-0.1042,-0.1047,-0.1053,-0.1008,-0.1014,-0.0966,-0.0965,-0.0994,-0.1021,-0.102,-0.0931,-0.0931,0,0,0,-0.0975,-0.0974,-0.0999,-0.0961,-0.0994,-0.105,-0.1057,-0.1017,-0.1025,-0.0964,-0.0994,-0.102,-0.1019,-0.0931,-0.0931,-0.1019,0,0,0,-0.0971,-0.0969,-0.0997,-0.0994,-0.0997,-0.1035,-0.1066,-0.1028,-0.1025,-0.0994,-0.102,-0.1018,-0.0931,-0.0931,-0.1017,-0.1013,0,0,0,-0.0955,-0.0967,-0.0984,-0.0993,-0.104,-0.1037,-0.1044,-0.1029,-0.1041,-0.1022,-0.1017,-0.0931,-0.0931,-0.1015,-0.1011,-0.099,0,0,0,-0.0937,-0.095,-0.0984,-0.101,-0.104,-0.1071,-0.1045,-0.1067,-0.1058,-0.102,-0.0931,-0.0931,-0.1015,-0.101,-0.0989,-0.087,0,0,0,-0.0933,-0.095,-0.0963,-0.0995,-0.1029,-0.1056,-0.1078,-0.1062,-0.1021,-0.093,-0.093,-0.1018,-0.1011,-0.099,-0.0854,0,0,0,0,-0.0947,-0.0961,-0.0977,-0.1014,-0.1044,-0.1073,-0.1078,-0.1074,-0.1047,-0.1018,-0.0987,-0.0978,-0.0963,-0.089,-0.093,-0.093,-0.093,-0.093,-0.093,-0.0909,-0.0942,-0.0967,-0.1011,-0.1037,-0.108,-0.1098,-0.1081,-0.1053,-0.1058,-0.1031,-0.104,-0.0967,-0.1027,-0.1027,-0.1028,-0.1028,-0.1028,-0.1029,-0.0895,-0.0907,-0.0963,-0.0998,-0.1038,-0.106,-0.109,-0.1106,-0.1086,-0.1072,-0.1055,-0.0963,-0.1037,-0.1035,-0.1034,-0.1033,-0.1032,-0.1032,-0.1031,-0.0861,-0.0869,-0.0911,-0.0963,-0.1007,-0.1054,-0.1074,-0.1108,-0.1116,-0.1127,-0.0996,-0.1062,-0.1075,-0.1114,-0.1114,-0.1114,-0.1114,-0.1114,-0.1114,-0.0796,-0.0839,-0.0859,-0.0925,-0.0952,-0.0996,-0.1057,-0.1061,-0.1087,-0.1032,-0.1124,-0.1067,-0.1064,-0.1076,-0.1113,-0.1113,-0.1113,-0.1113,-0.1113,-0.0739,-0.0763,-0.0783,-0.0811,-0.0865,-0.0891,-0.0981,-0.097,-0.0954,-0.0919,-0.097,-0.0977,-0.0913,-0.0913,-0.0917,-0.0909,-0.0908,-0.0906,0,-0.0681,-0.0701,-0.0697,-0.0706,-0.072,-0.0807,-0.0794,-0.0823,-0.0837,-0.0808,-0.0931,-0.0987,-0.0992,-0.0919,-0.0917,-0.092,0,0,0,-0.0631,-0.0642,-0.0604,-0.0623,-0.0633,-0.0682,-0.0775,-0.0745,-0.086,-0.0817,-0.087,-0.0879,-0.1033,-0.1109,-0.1027,-0.1023,-0.1035,0,0]},{"header":{"parameterUnit":"m.s-1","parameterCategory":2,"la1":30.2992,"la2":30.254,"lo1":-89.0895,"lo2":-89.0443,"dy":0.0025,"dx":0.0025,"nx":19,"ny":19,"refTime":"2026-04-12T03:00:00:Z","depth":"4","parameterNumber":3,"parameterNumberName":"V-component_of_CURRENTS"},"data":[0,0,0,-0.0121,-0.0119,-0.0026,-0.0026,0.0089,0.009,0,0,0,0,0,0,0,0,0,0,0,-0.0157,-0.0156,-0.0121,-0.0119,-0.0026,-0.0026,0.0089,0.009,0,0,0,0,0,0,0,0,0,0,0,-0.0157,-0.0156,-0.0156,-0.0119,-0.0026,-0.0026,0.0089,0.0021,0,0,0,0,0,0,0,0,0,0,-0.0068,-0.0109,-0.0157,-0.0156,-0.0118,-0.0026,-0.0026,0.0018,0.0025,0.0044,0,0.0053,0,0.0073,0.0097,0.0097,0,0,0,-0.0112,-0.0115,-0.0084,-0.0156,-0.0118,-0.0027,-0.0066,0.0022,0.0031,0.0053,0.0055,0.0059,0.0075,0.0098,0.0098,0.0237,0.0238,0,0,-0.0117,-0.0143,-0.009,-0.0079,-0.01,-0.0069,-0.0063,0.0027,0.003,0.0055,0.0062,0.0077,0.0098,0.0099,0.0236,0.0237,0,0,0,-0.0137,-0.0146,-0.0117,-0.0084,-0.0067,-0.0067,-0.006,0.0026,0.0037,0.0064,0.0078,0.0099,0.01,0.0236,0.0237,0.0156,0,0,0,-0.0139,-0.0158,-0.012,-0.0134,-0.007,-0.0021,-0.0064,0.003,0.0042,0.0078,0.0099,0.0101,0.0235,0.0236,0.0156,0.0103,0,0,0,-0.016,-0.016,-0.015,-0.0136,-0.0097,-0.0022,-0.0005,0.0033,0.005,0.0098,0.0102,0.0234,0.0236,0.0156,0.0105,0.0111,0,0,0,-0.0187,-0.0177,-0.0151,-0.0136,-0.0098,-0.0034,-0.0005,0.0043,0.0081,0.01,0.0235,0.0237,0.0156,0.0107,0.0112,0.0075,0,0,0,-0.0188,-0.0178,-0.0168,-0.0143,-0.0105,-0.0046,0.0007,0.0064,0.012,0.0204,0.0207,0.0156,0.0106,0.0111,0.0181,0,0,0,0,-0.0178,-0.0176,-0.0158,-0.0133,-0.0076,-0.0034,0.0044,0.0084,0.0157,0.0151,0.0215,0.0187,0.0192,0.0178,0.0245,0.0245,0.0245,0.0245,0.0244,-0.0221,-0.0191,-0.0179,-0.0134,-0.0095,-0.0013,0.0024,0.0104,0.016,0.0193,0.0165,0.0172,0.0159,0.0227,0.0227,0.0226,0.0226,0.0226,0.0226,-0.0244,-0.0241,-0.0208,-0.0191,-0.0138,-0.0091,0.001,0.005,0.0122,0.0166,0.0176,0.0148,0.0219,0.0221,0.0222,0.0222,0.0223,0.0223,0.0224,-0.0285,-0.0278,-0.0272,-0.0255,-0.023,-0.0155,-0.0122,-0.0045,0.0043,0.0044,0.0078,0.0135,0.0091,0.0067,0.0067,0.0067,0.0067,0.0067,0.0066,-0.0332,-0.0319,-0.034,-0.0319,-0.0319,-0.0291,-0.0198,-0.0147,-0.0054,-0.0011,0.0032,0.0119,0.0124,0.0086,0.0063,0.0064,0.0064,0.0065,0.0065,-0.0369,-0.0376,-0.0411,-0.0424,-0.0424,-0.0396,-0.0304,-0.019,-0.0141,-0.0091,-0.002,-0.0015,0.0013,0.0021,-0.0021,-0.0076,-0.0077,-0.0077,0,-0.0404,-0.0405,-0.048,-0.0522,-0.0532,-0.0465,-0.0383,-0.0298,-0.019,-0.0201,-0.0165,-0.0093,-0.0086,-0.0061,-0.0054,-0.0107,0,0,0,-0.0431,-0.0454,-0.0526,-0.0577,-0.0593,-0.0471,-0.0367,-0.0332,-0.0197,-0.014,-0.0092,-0.0088,-0.0012,0.0054,0.011,0.0116,0.0057,0,0]}]]